Location: Home
(42.5358°N, 72.7383°W)
Time: 22:29:40
(UTC-05:00)

Vanguard 2 Rocket - Pass Details

Date: 06 December 2021
Orbit: 554 x 3325 km, 32.9° (Epoch: 21 January)

Event Time Altitude Azimuth Distance (km) Brightness Sun altitude
Rises 21:25:27 0° 267° (W) 4,118 10.7 -55.3°
Reaches altitude 10° 21:28:05 10° 258° (WSW) 3,455 10.1 -55.8°
Enters shadow 21:28:44 13° 255° (WSW) 3,314 10.0 -55.9°
Maximum altitude 21:36:15 36° 196° (SSW) 2,805 - -57.1°
Drops below altitude 10° 21:49:19 10° 138° (SE) 5,517 - -59.2°
Sets 21:54:54 0° 131° (SE) 6,882 - -60.1°
